New River MCAS, NC

5:39 AM EDT on October 18, 2017 (GMT -0400)
New River Marine Corps Air Station

Weather History for KNCA - October, 2010

Change the Weather History Date:

Saturday, October 2, 2010

  Actual Average Record
Temperature  
Mean Temperature 66 °F -  
Max Temperature 73 °F 76 °F 86 °F (2002)
Min Temperature 59 °F 57 °F 44 °F (2011)
Cooling Degree Days 1    
Growing Degree Days 16 (Base 50)    
Moisture  
Dew Point 55 °F    
Average Humidity 69    
Maximum Humidity 93    
Minimum Humidity 53    
Precipitation  
Precipitation 0.00 in - - ()
Sea Level Pressure  
Sea Level Pressure 29.91 in    
Wind  
Wind Speed 9 mph (NNE)    
Max Wind Speed 17 mph    
Max Gust Speed -    
Visibility 10 miles    
Events      
Averages and records for this station are not official NWS values.
T = Trace of Precipitation, MM = Missing Value Source: NWS Daily Summary

Daily Weather History Graph

Daily Weather History Graph

Search for Another Location

Airport or City:

Trip Planner

Search our weather history database for the weather conditions in past years. The results will help you decide how hot, cold, wet, or windy it might be!

Date:

Astronomy

Oct. 02, 2010 Rise Set
Actual Time 7:05 AM EDT 6:52 PM EDT
Civil Twilight 6:39 AM EDT 7:17 PM EDT
Nautical Twilight 6:10 AM EDT 7:46 PM EDT
Astronomical Twilight 5:41 AM EDT 8:16 PM EDT
Moon 1:02 AM EDT (10/2) 3:24 PM EDT (10/2)
Length of Visible Light 12h 37m
Length of Day
11h 47m
Waning Crescent, 33% of the Moon is Illuminated
Oct 2
Waning Crescent
Oct 7
New
Oct 14
First Quarter
Oct 22
Full
Oct 30
Last Quarter

Hourly Weather History & Observations

Time (EDT) Temp. Dew Point Humidity Pressure Visibility Wind Dir Wind Speed Gust Speed Precip Events Conditions
12:56 AM 64.0 °F 62.1 °F 93% 29.88 in 9.0 mi North 4.6 mph - N/A   Clear
1:56 AM 63.0 °F 61.0 °F 93% 29.90 in 10.0 mi North 5.8 mph - N/A   Clear
2:56 AM 62.1 °F 57.9 °F 86% 29.90 in 10.0 mi North 10.4 mph - N/A   Overcast
3:56 AM 62.1 °F 55.0 °F 78% 29.90 in 10.0 mi North 8.1 mph - N/A   Overcast
4:56 AM 61.0 °F 54.0 °F 78% 29.91 in 10.0 mi North 10.4 mph - N/A   Overcast
5:56 AM 60.1 °F 53.1 °F 78% 29.92 in 10.0 mi North 11.5 mph - N/A   Overcast
6:56 AM 59.0 °F 51.1 °F 75% 29.93 in 10.0 mi North 11.5 mph - N/A   Mostly Cloudy
7:56 AM 59.0 °F 52.0 °F 78% 29.94 in 10.0 mi North 9.2 mph - N/A   Mostly Cloudy
8:56 AM 62.1 °F 53.1 °F 72% 29.95 in 10.0 mi NNE 9.2 mph - N/A   Overcast
9:56 AM 66.0 °F 54.0 °F 65% 29.96 in 10.0 mi NNE 8.1 mph - N/A   Clear
10:56 AM 70.0 °F 54.0 °F 57% 29.96 in 10.0 mi NNE 13.8 mph - N/A   Clear
11:56 AM 72.0 °F 54.0 °F 53% 29.96 in 10.0 mi NNE 17.3 mph - N/A   Clear
12:56 PM 72.0 °F 55.0 °F 55% 29.95 in 10.0 mi NNE 13.8 mph - N/A   Scattered Clouds
1:56 PM 73.9 °F 55.9 °F 53% 29.92 in 10.0 mi NE 9.2 mph - N/A   Partly Cloudy
2:56 PM 73.0 °F 55.9 °F 55% 29.90 in 10.0 mi NE 11.5 mph - N/A   Partly Cloudy
3:56 PM 73.0 °F 55.9 °F 55% 29.89 in 10.0 mi NE 10.4 mph - N/A   Mostly Cloudy
4:56 PM 72.0 °F 55.9 °F 57% 29.88 in 10.0 mi NE 10.4 mph - N/A   Mostly Cloudy
5:56 PM 70.0 °F 57.0 °F 63% 29.89 in 10.0 mi ENE 10.4 mph - N/A   Overcast
6:56 PM 68.0 °F 55.9 °F 65% 29.89 in 10.0 mi NE 9.2 mph - N/A   Partly Cloudy
7:56 PM 66.0 °F 55.0 °F 68% 29.89 in 10.0 mi NNE 11.5 mph - N/A   Partly Cloudy
8:56 PM 66.0 °F 55.0 °F 68% 29.90 in 10.0 mi NNE 8.1 mph - N/A   Mostly Cloudy
9:56 PM 64.9 °F 55.0 °F 70% 29.90 in 10.0 mi NE 11.5 mph - N/A   Overcast
10:46 PM 64.4 °F 55.4 °F 73% 29.89 in 10.0 mi North 9.2 mph - N/A   Overcast
10:56 PM 64.0 °F 55.0 °F 73% 29.90 in 10.0 mi North 6.9 mph - N/A   Overcast
11:56 PM 64.0 °F 55.0 °F 73% 29.88 in 10.0 mi NNE 8.1 mph - N/A   Overcast